• In Schweiz
  • Länderverzeichnis
  • Für 7 Tage
  • Wassertemperatur
  • Satellitenkarten
  • Wetterkarte
  • Widgets
  • user-avatar
    Anmelden

    Stündliche Wetter Sarnen

    Heute, 25 September, Dienstag

    Zeit Temperatur Niederschläge Wind Luftdruck Luftfeuchtigkeit
    00:00 +7°C° 0 mm 2 m/S 727 mmHg 80%
    01:00 +7°C° 0 mm 2 m/S 727 mmHg 79%
    02:00 +7°C° 0 mm 2 m/S 727 mmHg 78%
    03:00 +7°C° 0 mm 2 m/S 727 mmHg 78%
    04:00 +6°C° 0 mm 2 m/S 727 mmHg 77%
    05:00 +6°C° 0 mm 2 m/S 727 mmHg 75%
    06:00 +8°C° 0 mm 1 m/S 727 mmHg 72%
    07:00 +8°C° 0 mm 1 m/S 728 mmHg 67%
    08:00 +9°C° 0 mm 2 m/S 728 mmHg 60%
    09:00 +12°C° 0 mm 2 m/S 728 mmHg 53%
    10:00 +14°C° 0 mm 2 m/S 728 mmHg 46%
    11:00 +16°C° 0 mm 2 m/S 728 mmHg 45%
    12:00 +17°C° 0 mm 3 m/S 728 mmHg 44%
    13:00 +18°C° 0 mm 3 m/S 727 mmHg 44%
    14:00 +18°C° 0 mm 3 m/S 727 mmHg 46%
    15:00 +17°C° 0 mm 3 m/S 727 mmHg 49%
    16:00 +17°C° 0 mm 3 m/S 727 mmHg 52%
    17:00 +15°C° 0 mm 2 m/S 727 mmHg 61%
    18:00 +13°C° 0 mm 2 m/S 727 mmHg 71%
    19:00 +10°C° 0 mm 2 m/S 727 mmHg 80%
    20:00 +9°C° 0 mm 2 m/S 728 mmHg 81%
    21:00 +9°C° 0 mm 2 m/S 728 mmHg 82%
    22:00 +8°C° 0 mm 2 m/S 728 mmHg 84%
    23:00 +9°C° 0 mm 1 m/S 728 mmHg 84%

    Morgen, 26 September, Mittwoch

    Zeit Temperatur Niederschläge Wind Luftdruck Luftfeuchtigkeit
    00:00 +9°C° 0 mm 1 m/S 729 mmHg 85%
    01:00 +9°C° 0 mm 1 m/S 729 mmHg 86%
    02:00 +9°C° 0 mm 1 m/S 729 mmHg 85%
    03:00 +9°C° 0 mm 1 m/S 729 mmHg 85%
    04:00 +8°C° 0 mm 1 m/S 729 mmHg 84%
    05:00 +9°C° 0 mm 1 m/S 729 mmHg 81%
    06:00 +9°C° 0 mm 1 m/S 729 mmHg 78%
    07:00 +9°C° 0 mm 1 m/S 729 mmHg 75%
    08:00 +12°C° 0 mm 1 m/S 729 mmHg 65%
    09:00 +16°C° 0 mm 1 m/S 729 mmHg 56%
    10:00 +18°C° 0 mm 0 m/S 730 mmHg 46%
    11:00 +21°C° 0 mm 1 m/S 730 mmHg 44%
    12:00 +22°C° 0 mm 1 m/S 729 mmHg 42%
    13:00 +24°C° 0 mm 1 m/S 729 mmHg 40%
    14:00 +23°C° 0 mm 1 m/S 729 mmHg 43%
    15:00 +23°C° 0 mm 1 m/S 729 mmHg 46%
    16:00 +23°C° 0 mm 1 m/S 729 mmHg 49%
    17:00 +20°C° 0 mm 1 m/S 729 mmHg 58%
    18:00 +16°C° 0 mm 1 m/S 728 mmHg 67%
    19:00 +14°C° 0 mm 1 m/S 728 mmHg 77%
    20:00 +13°C° 0 mm 1 m/S 729 mmHg 76%
    21:00 +13°C° 0 mm 1 m/S 729 mmHg 75%
    22:00 +13°C° 0 mm 1 m/S 729 mmHg 74%
    23:00 +13°C° 0 mm 1 m/S 729 mmHg 71%

    übermorgen, 27 September, Donnerstag

    Zeit Temperatur Niederschläge Wind Luftdruck Luftfeuchtigkeit
    00:00 +13°C° 0 mm 1 m/S 729 mmHg 68%
    01:00 +12°C° 0 mm 1 m/S 729 mmHg 65%
    02:00 +12°C° 0 mm 1 m/S 728 mmHg 62%
    03:00 +12°C° 0 mm 1 m/S 728 mmHg 59%
    04:00 +12°C° 0 mm 1 m/S 728 mmHg 56%
    05:00 +12°C° 0 mm 1 m/S 728 mmHg 54%
    06:00 +13°C° 0 mm 1 m/S 728 mmHg 53%
    07:00 +13°C° 0 mm 1 m/S 727 mmHg 52%
    08:00 +16°C° 0 mm 1 m/S 728 mmHg 48%
    09:00 +20°C° 0 mm 1 m/S 728 mmHg 44%
    10:00 +21°C° 0 mm 0 m/S 728 mmHg 40%
    11:00 +24°C° 0 mm 1 m/S 728 mmHg 39%
    12:00 +25°C° 0 mm 1 m/S 727 mmHg 39%
    13:00 +26°C° 0 mm 1 m/S 727 mmHg 38%
    14:00 +25°C° 0 mm 1 m/S 726 mmHg 42%
    15:00 +25°C° 0 mm 1 m/S 726 mmHg 45%
    16:00 +25°C° 0 mm 1 m/S 725 mmHg 48%
    17:00 +22°C° 0 mm 1 m/S 725 mmHg 58%
    18:00 +19°C° 0 mm 1 m/S 725 mmHg 68%
    19:00 +15°C° 0 mm 1 m/S 724 mmHg 78%
    20:00 +15°C° 0 mm 1 m/S 724 mmHg 77%
    21:00 +15°C° 0 mm 1 m/S 724 mmHg 77%
    22:00 +15°C° 0 mm 1 m/S 724 mmHg 77%
    23:00 +14°C° 0 mm 1 m/S 724 mmHg 76%

    28 September, Freitag

    Zeit Temperatur Niederschläge Wind Luftdruck Luftfeuchtigkeit
    00:00 +14°C° 0 mm 1 m/S 723 mmHg 76%
    01:00 +14°C° 0 mm 1 m/S 723 mmHg 75%
    02:00 +14°C° 0 mm 1 m/S 723 mmHg 73%
    03:00 +14°C° 0 mm 1 m/S 722 mmHg 71%
    04:00 +13°C° 0 mm 1 m/S 722 mmHg 70%
    05:00 +13°C° 0 mm 1 m/S 722 mmHg 68%
    06:00 +13°C° 0 mm 1 m/S 722 mmHg 66%
    07:00 +13°C° 0 mm 1 m/S 721 mmHg 65%
    08:00 +16°C° 0 mm 1 m/S 721 mmHg 59%
    09:00 +20°C° 0 mm 1 m/S 722 mmHg 54%
    10:00 +23°C° 0 mm 1 m/S 722 mmHg 48%
    11:00 +23°C° 0 mm 1 m/S 721 mmHg 47%
    12:00 +24°C° 0 mm 1 m/S 721 mmHg 45%
    13:00 +25°C° 0 mm 1 m/S 720 mmHg 44%
    14:00 +25°C° 0 mm 2 m/S 720 mmHg 47%
    15:00 +24°C° 0 mm 2 m/S 720 mmHg 50%
    16:00 +24°C° 0 mm 2 m/S 719 mmHg 54%
    17:00 +21°C° 0 mm 1 m/S 719 mmHg 64%
    18:00 +19°C° 0 mm 1 m/S 719 mmHg 74%
    19:00 +15°C° 0 mm 1 m/S 719 mmHg 85%
    20:00 +15°C° 0 mm 1 m/S 719 mmHg 86%
    21:00 +14°C° 0 mm 1 m/S 719 mmHg 87%
    22:00 +14°C° 0 mm 1 m/S 720 mmHg 88%
    23:00 +13°C° 0 mm 1 m/S 720 mmHg 88%

    29 September, Samstag

    Zeit Temperatur Niederschläge Wind Luftdruck Luftfeuchtigkeit
    00:00 +13°C° 0 mm 1 m/S 719 mmHg 87%
    01:00 +13°C° 0 mm 1 m/S 719 mmHg 87%
    02:00 +12°C° 0 mm 1 m/S 719 mmHg 87%
    03:00 +12°C° 0 mm 1 m/S 719 mmHg 87%
    04:00 +12°C° 0 mm 1 m/S 719 mmHg 86%
    05:00 +12°C° 0 mm 1 m/S 719 mmHg 86%
    06:00 +12°C° 0 mm 1 m/S 719 mmHg 85%
    07:00 +12°C° 0 mm 1 m/S 719 mmHg 85%
    08:00 +14°C° 0 mm 1 m/S 720 mmHg 77%
    09:00 +16°C° 0 mm 2 m/S 720 mmHg 69%
    10:00 +18°C° 0 mm 2 m/S 720 mmHg 62%
    11:00 +19°C° 0 mm 2 m/S 720 mmHg 60%
    12:00 +20°C° 0 mm 2 m/S 719 mmHg 58%
    13:00 +21°C° 0 mm 2 m/S 719 mmHg 56%
    14:00 +21°C° 0 mm 2 m/S 719 mmHg 59%
    15:00 +20°C° 0 mm 2 m/S 719 mmHg 62%
    16:00 +20°C° 0 mm 2 m/S 718 mmHg 65%
    17:00 +18°C° 0 mm 2 m/S 718 mmHg 73%
    18:00 +16°C° 0 mm 2 m/S 718 mmHg 82%
    19:00 +14°C° 0 mm 1 m/S 718 mmHg 91%
    20:00 +14°C° 0 mm 1 m/S 719 mmHg 91%
    21:00 +13°C° 0 mm 1 m/S 719 mmHg 90%
    22:00 +13°C° 0 mm 1 m/S 719 mmHg 90%
    23:00 +13°C° 0 mm 1 m/S 719 mmHg 90%

    30 September, Sonntag

    Zeit Temperatur Niederschläge Wind Luftdruck Luftfeuchtigkeit
    00:00 +13°C° 0 mm 1 m/S 719 mmHg 89%
    01:00 +12°C° 0 mm 1 m/S 719 mmHg 88%
    02:00 +12°C° 0 mm 1 m/S 719 mmHg 88%
    03:00 +12°C° 0 mm 1 m/S 718 mmHg 87%
    04:00 +12°C° 0 mm 1 m/S 718 mmHg 86%
    05:00 +12°C° 0 mm 1 m/S 718 mmHg 85%
    06:00 +12°C° 0 mm 1 m/S 718 mmHg 84%
    07:00 +12°C° 0 mm 1 m/S 718 mmHg 84%
    08:00 +15°C° 0 mm 1 m/S 718 mmHg 74%
    09:00 +19°C° 0 mm 1 m/S 718 mmHg 64%
    10:00 +22°C° 0 mm 1 m/S 718 mmHg 54%
    11:00 +23°C° 0 mm 1 m/S 718 mmHg 51%
    12:00 +24°C° 0 mm 1 m/S 718 mmHg 48%
    13:00 +25°C° 0 mm 1 m/S 717 mmHg 45%
    14:00 +25°C° 0 mm 1 m/S 717 mmHg 47%
    15:00 +24°C° 0 mm 1 m/S 717 mmHg 50%
    16:00 +24°C° 0 mm 1 m/S 716 mmHg 52%
    17:00 +22°C° 0 mm 1 m/S 716 mmHg 61%
    18:00 +19°C° 0 mm 1 m/S 716 mmHg 71%
    19:00 +16°C° 0 mm 1 m/S 716 mmHg 80%
    20:00 +15°C° 0 mm 1 m/S 716 mmHg 80%
    21:00 +15°C° 0 mm 1 m/S 716 mmHg 80%
    22:00 +15°C° 0 mm 1 m/S 716 mmHg 80%
    23:00 +15°C° 0.1 mm 1 m/S 716 mmHg 81%
    Mehr zeigen